Tracking 27112 objects as of 27-Mar-2023
HD Live streaming from Space Station
objects crossing your sky now

STARLINK-2636

Track STARLINK-2636 now!
10-day predictions
STARLINK-2636 is classified as:


NORAD ID: 48357
Int'l Code: 2021-038E
Perigee: 553.3 km
Apogee: 555.1 km
Inclination: 53.1 °
Period: 95.6 minutes
Semi major axis: 6925 km
RCS: Unknown
Launch date: May 4, 2021
Source: United States (US)
Launch site: AIR FORCE EASTERN TEST RANGE (AFETR)
Your satellite tracking list
Your tracking list is empty




NASA's NSSDC Master Catalog

Two Line Element Set (TLE):
1 48357U 21038E   23085.65682881  .00034089  00000-0  22934-2 0  9999
2 48357  53.0517 165.6158 0001291  87.5550 272.5586 15.06447718104390
Source of the keplerian elements: AFSPC